GW5663 Weather Reports


time (UTC)temp
F
wind
direction
speed
knots
gust
knots
rain 1hr
in
rain 24hr
in
rain mn
in
humidity
%
barometer
mb
20260506124633 53 91 3.5 7.8 0.24 0.06 0.06 94 1089.8
20260506124130 53 56 4.3 8.7 0.35 0.06 0.06 93 1090.3
20260506123627 54 58 1.7 2.6 0.24 0.04 0.04 91 1091.2
20260506123126 55 325 3.5 3.5 0.00 0.00 0.00 87 1093.2
20260506122622 55 36 2.6 3.5 0.00 0.00 0.00 86 1091.9
20260506122120 55 45 4.3 5.2 0.00 0.00 0.00 86 1091.5
20260506121618 55 23 1.7 2.6 0.00 0.00 0.00 87 1091.5
20260506121114 55 68 3.5 6.1 0.00 0.00 0.00 86 1091.0
20260506120612 55 48 2.6 2.6 0.00 0.00 0.00 87 1090.2
20260506120109 55 59 3.5 3.5 0.00 0.00 0.00 87 1089.7
20260506115608 55 35 7.8 11.3 0.00 0.00 0.00 86 1090.6
20260506115105 55 25 3.5 6.1 0.00 0.00 0.00 86 1090.9
20260506114602 55 36 2.6 3.5 0.00 0.00 0.00 86 1091.5
20260506114100 55 15 2.6 2.6 0.00 0.00 0.00 86 1090.9
20260506113558 55 25 1.7 1.7 0.00 0.00 0.00 86 1091.0
20260506113055 55 50 3.5 5.2 0.00 0.00 0.00 86 1090.7
20260506112551 55 41 2.6 2.6 0.00 0.00 0.00 86 1090.2
20260506112049 55 33 2.6 6.1 0.00 0.00 0.00 86 1090.1
20260506111547 56 54 0.9 0.9 0.00 0.00 0.00 86 1090.6
20260506111044 56 40 1.7 1.7 0.00 0.00 0.00 86 1090.2
20260506110541 56 46 4.3 6.1 0.00 0.00 0.00 85 1090.0
20260506110039 56 47 0.9 1.7 0.00 0.00 0.00 85 1090.2
20260506105534 56 40 3.5 3.5 0.00 0.00 0.00 85 1090.0
20260506105032 56 63 4.3 5.2 0.00 0.00 0.00 84 1089.8
20260506104530 57 54 1.7 2.6 0.00 0.00 0.00 85 1089.6
20260506104028 57 42 3.5 3.5 0.00 0.00 0.00 84 1089.4
20260506103525 57 34 1.7 2.6 0.00 0.00 0.00 84 1089.5
20260506103021 57 36 1.7 2.6 0.00 0.00 0.00 84 1089.2
20260506102520 58 87 0.9 1.7 0.00 0.00 0.00 84 1089.3
20260506102017 58 85 5.2 7.0 0.00 0.00 0.00 83 1089.7
20260506101513 58 38 3.5 3.5 0.00 0.00 0.00 83 1089.7
20260506101010 58 34 3.5 6.1 0.00 0.00 0.00 83 1089.6
20260506100509 58 47 2.6 2.6 0.00 0.00 0.00 83 1089.3
20260506100007 58 44 1.7 2.6 0.00 0.00 0.00 83 1089.5
20260506095505 58 64 7.0 8.7 0.00 0.00 0.00 82 1088.9
20260506095000 59 43 7.0 11.3 0.00 0.00 0.00 82 1089.3
20260506094459 59 350 2.6 3.5 0.00 0.00 0.00 83 1089.3
20260506093956 59 33 0.9 0.9 0.00 0.00 0.00 83 1089.3
20260506093454 59 42 3.5 3.5 0.00 0.00 0.00 83 1088.9
20260506092952 60 23 2.6 3.5 0.00 0.00 0.00 83 1089.0
20260506092449 60 37 2.6 2.6 0.00 0.00 0.00 83 1088.9
20260506091946 60 36 1.7 2.6 0.00 0.00 0.00 83 1088.6
20260506091444 60 15 2.6 5.2 0.00 0.00 0.00 83 1088.6
20260506090941 61 43 3.5 6.1 0.00 0.00 0.00 83 1088.7
20260506090439 61 38 2.6 3.5 0.00 0.00 0.00 83 1088.4
20260506085935 61 38 1.7 2.6 0.00 0.00 0.00 83 1088.4
20260506085432 62 358 1.7 2.6 0.00 0.00 0.00 82 1088.7
20260506084928 62 36 2.6 3.5 0.00 0.00 0.00 82 1088.6
20260506084426 62 41 1.7 1.7 0.00 0.00 0.00 82 1088.3
20260506083921 62 40 5.2 7.0 0.00 0.00 0.00 82 1088.4
20260506083419 62 29 3.5 5.2 0.00 0.00 0.00 82 1088.5
20260506082916 62 16 2.6 2.6 0.00 0.00 0.00 82 1088.5
20260506082413 63 358 1.7 2.6 0.00 0.00 0.00 82 1088.6
20260506081908 63 35 1.7 3.5 0.00 0.00 0.00 82 1088.5
20260506081408 63 23 2.6 3.5 0.00 0.00 0.00 82 1088.5
20260506080904 63 37 2.6 3.5 0.00 0.00 0.00 82 1088.6
20260506080401 64 37 1.7 2.6 0.00 0.00 0.00 81 1088.6
20260506073345 64 41 0.0 0.9 0.00 0.00 0.00 78 1088.6
20260506072841 64 68 0.0 0.9 0.00 0.00 0.00 77 1088.9
20260506072339 64 83 1.7 1.7 0.00 0.00 0.00 77 1088.5
20260506071837 65 49 1.7 2.6 0.00 0.00 0.00 76 1088.7
20260506071335 65 73 0.0 0.0 0.00 0.00 0.00 76 1088.6
20260506070831 64 69 0.9 1.7 0.00 0.00 0.00 76 1089.0
20260506070328 65 95 0.0 0.9 0.00 0.00 0.00 75 1089.0
20260506062306 67 49 2.6 2.6 0.00 0.00 0.00 69 1088.5
20260506061801 67 63 1.7 2.6 0.00 0.00 0.00 68 1088.0
20260506061258 67 44 1.7 2.6 0.00 0.00 0.00 66 1087.9
20260506060757 67 13 1.7 1.7 0.00 0.00 0.00 64 1088.1
20260506060254 68 13 1.7 1.7 0.00 0.00 0.00 60 1088.1
20260506051226 67 25 0.0 0.0 0.00 0.00 0.00 60 1087.8
20260506050724 68 25 0.0 0.9 0.00 0.00 0.00 55 1088.0
20260506050221 68 25 0.0 0.0 0.00 0.00 0.00 51 1088.1
20260506044712 67 25 0.0 0.0 0.00 0.00 0.00 59 1087.9
20260506044209 68 25 0.0 0.0 0.00 0.00 0.00 57 1087.9
20260506043706 68 25 0.0 0.0 0.00 0.00 0.00 55 1087.9
20260506043204 69 25 0.0 0.0 0.00 0.00 0.00 53 1088.1
20260506042703 69 25 0.9 0.9 0.00 0.00 0.00 52 1087.9
20260506042200 69 25 0.0 0.0 0.00 0.00 0.00 49 1087.8
20260506041659 70 25 0.0 0.0 0.00 0.00 0.00 51 1087.8
20260506041155 71 25 0.0 0.0 0.00 0.00 0.00 42 1087.7
20260506040653 71 25 0.0 0.0 0.00 0.00 0.00 42 1087.7
20260506040149 72 25 0.0 0.0 0.00 0.00 0.00 42 1087.8
20260506035646 72 25 0.0 0.0 0.00 0.00 0.00 41 1087.7
20260506035143 72 25 0.0 0.0 0.00 0.00 0.00 42 1087.8
20260506034640 72 25 0.0 0.0 0.00 0.00 0.00 41 1087.9
20260506034137 72 25 0.0 0.0 0.00 0.00 0.00 46 1087.9
20260506033634 71 25 0.0 0.0 0.00 0.00 0.00 45 1087.8
20260506033131 72 25 0.0 0.9 0.00 0.00 0.00 47 1087.8
20260506032628 73 25 0.0 0.0 0.00 0.00 0.00 48 1088.0
20260506032125 73 25 0.0 0.9 0.00 0.00 0.00 43 1087.9
20260506031622 72 25 0.0 0.9 0.00 0.00 0.00 44 1087.7
20260506031119 73 25 0.9 0.9 0.00 0.00 0.00 46 1087.5
20260506030618 74 25 0.0 0.0 0.00 0.00 0.00 41 1087.3
20260506030115 74 25 0.0 0.0 0.00 0.00 0.00 40 1087.5
20260506025612 75 25 0.0 0.0 0.00 0.00 0.00 42 1087.3
20260506025107 75 25 0.0 0.0 0.00 0.00 0.00 38 1087.4
20260506024605 76 25 0.0 0.0 0.00 0.00 0.00 38 1087.3
20260506024101 77 25 0.0 0.0 0.00 0.00 0.00 38 1087.1
20260506023557 77 25 0.0 0.0 0.00 0.00 0.00 39 1087.3
20260506023055 78 25 0.0 0.0 0.00 0.00 0.00 39 1086.8
20260506022552 78 25 0.9 1.7 0.00 0.00 0.00 36 1087.0
20260506022049 78 19 0.0 0.9 0.00 0.00 0.00 39 1087.1
20260506021547 77 5 0.9 0.9 0.00 0.00 0.00 39 1086.8
20260506021044 76 335 0.0 0.0 0.00 0.00 0.00 43 1087.1
20260506020541 77 335 0.0 0.0 0.00 0.00 0.00 40 1087.0
20260506020038 77 335 0.0 0.0 0.00 0.00 0.00 39 1086.9
20260506015536 78 335 0.9 0.9 0.00 0.00 0.00 37 1086.9
20260506015033 79 324 0.0 0.0 0.00 0.00 0.00 37 1086.7
20260506014530 80 318 0.0 0.0 0.00 0.00 0.00 34 1086.5
20260506014026 81 317 0.9 0.9 0.00 0.00 0.00 33 1086.5
20260506013524 82 294 0.9 1.7 0.00 0.00 0.00 34 1086.6
20260506013021 82 298 0.9 2.6 0.00 0.00 0.00 33 1086.5
20260506012517 81 305 0.9 0.9 0.00 0.00 0.00 35 1086.1
20260506012014 82 304 0.9 0.9 0.00 0.00 0.00 35 1086.3
20260506011511 83 281 1.7 1.7 0.00 0.00 0.00 35 1086.2
20260506011008 83 276 2.6 3.5 0.00 0.00 0.00 33 1086.0
20260506010507 82 296 0.9 1.7 0.00 0.00 0.00 37 1086.3
20260506010003 83 303 0.0 0.0 0.00 0.00 0.00 37 1085.9
20260506005501 84 303 0.0 0.0 0.00 0.00 0.00 38 1086.0
20260506004956 84 303 0.0 0.0 0.00 0.00 0.00 36 1085.6
20260506004454 85 304 0.9 0.9 0.00 0.00 0.00 35 1085.8
20260506003950 85 304 0.9 0.9 0.00 0.00 0.00 34 1085.8
20260506003446 85 305 0.9 0.9 0.00 0.00 0.00 34 1085.7
20260506002943 86 296 0.0 0.9 0.00 0.00 0.00 34 1085.6
20260506002439 86 294 0.0 0.0 0.00 0.00 0.00 33 1086.0
20260506001934 87 294 0.9 0.9 0.00 0.00 0.00 31 1085.3
20260506001432 87 285 0.0 0.9 0.00 0.00 0.00 33 1085.7
20260506000929 86 285 0.9 0.9 0.00 0.00 0.00 32 1085.6
20260506000426 86 290 0.9 1.7 0.00 0.00 0.00 31 1085.7
20260505235923 86 297 0.9 0.9 0.00 0.00 0.00 32 1085.4
20260505235421 86 273 1.7 2.6 0.00 0.00 0.00 31 1085.4
20260505234918 87 282 1.7 1.7 0.00 0.00 0.00 29 1085.3
20260505234415 87 266 0.9 0.9 0.00 0.00 0.00 30 1085.4
20260505233912 87 269 3.5 3.5 0.00 0.00 0.00 29 1085.4
20260505233410 88 282 1.7 1.7 0.00 0.00 0.00 28 1085.2
20260505232907 88 272 3.5 5.2 0.00 0.00 0.00 27 1085.8
20260505232405 88 276 4.3 6.1 0.00 0.00 0.00 27 1085.8
20260505231901 88 267 2.6 2.6 0.00 0.00 0.00 29 1085.4
20260505231359 90 300 0.9 1.7 0.00 0.00 0.00 27 1085.4
20260505230857 89 338 4.3 5.2 0.00 0.00 0.00 27 1085.6
20260505230354 90 294 2.6 3.5 0.00 0.00 0.00 27 1085.4
20260505225850 91 306 0.9 0.9 0.00 0.00 0.00 28 1085.2
20260505225348 89 292 0.9 1.7 0.00 0.00 0.00 28 1085.6
20260505224843 89 299 5.2 6.1 0.00 0.00 0.00 25 1085.7
20260505224341 89 291 5.2 7.0 0.00 0.00 0.00 26 1085.7
20260505223838 91 296 4.3 6.1 0.00 0.00 0.00 26 1085.7
20260505223334 90 293 3.5 3.5 0.00 0.00 0.00 26 1085.7
20260505222830 90 280 2.6 2.6 0.00 0.00 0.00 27 1085.4
20260505222326 91 296 3.5 6.1 0.00 0.00 0.00 26 1085.7
20260505221824 91 279 4.3 5.2 0.00 0.00 0.00 25 1085.6
20260505221320 91 285 3.5 3.5 0.00 0.00 0.00 26 1085.4
20260505220818 91 288 1.7 1.7 0.00 0.00 0.00 26 1085.6
20260505220314 92 284 4.3 5.2 0.00 0.00 0.00 25 1085.4
20260505215813 92 261 3.5 3.5 0.00 0.00 0.00 25 1085.7
20260505215310 91 272 2.6 3.5 0.00 0.00 0.00 26 1085.7
20260505214808 92 271 3.5 5.2 0.00 0.00 0.00 26 1085.4
20260505214305 91 276 2.6 5.2 0.00 0.00 0.00 25 1085.6
20260505213802 92 251 7.0 7.8 0.00 0.00 0.00 25 1085.7
20260505213300 92 300 2.6 2.6 0.00 0.00 0.00 27 1085.8
20260505212755 91 350 2.6 2.6 0.00 0.00 0.00 28 1085.6
20260505212253 91 290 2.6 3.5 0.00 0.00 0.00 26 1085.8
20260505211749 92 324 3.5 6.1 0.00 0.00 0.00 28 1085.9
20260505211247 91 358 1.7 2.6 0.00 0.00 0.00 26 1085.8
20260505210743 92 311 8.7 12.2 0.00 0.00 0.00 26 1086.0
20260505210240 92 296 5.2 7.0 0.00 0.00 0.00 26 1086.0
20260505205737 91 261 1.7 2.6 0.00 0.00 0.00 28 1086.1
20260505205236 92 268 2.6 2.6 0.00 0.00 0.00 30 1086.1
20260505204732 91 306 5.2 7.8 0.00 0.00 0.00 28 1086.2
20260505204230 91 277 4.3 6.1 0.00 0.00 0.00 30 1085.9
20260505203726 91 282 7.8 8.7 0.00 0.00 0.00 28 1086.1
20260505203224 91 278 7.0 11.3 0.00 0.00 0.00 28 1086.1
20260505202719 91 248 5.2 6.1 0.00 0.00 0.00 28 1086.4
20260505202215 90 267 2.6 3.5 0.00 0.00 0.00 28 1086.3
20260505201712 89 253 5.2 6.1 0.00 0.00 0.00 28 1086.4
20260505201210 91 274 4.3 5.2 0.00 0.00 0.00 29 1086.3
20260505200708 90 279 2.6 2.6 0.00 0.00 0.00 30 1086.5
20260505200204 91 257 3.5 3.5 0.00 0.00 0.00 29 1086.5
20260505195700 91 274 6.1 7.8 0.00 0.00 0.00 29 1086.3
20260505195158 89 278 3.5 5.2 0.00 0.00 0.00 30 1086.4
20260505194655 90 301 3.5 3.5 0.00 0.00 0.00 31 1086.7
20260505194151 90 290 3.5 6.1 0.00 0.00 0.00 30 1086.7
20260505193648 90 253 2.6 3.5 0.00 0.00 0.00 30 1086.5
20260505193144 91 292 3.5 5.2 0.00 0.00 0.00 32 1086.6
20260505192643 89 273 3.5 5.2 0.00 0.00 0.00 32 1086.7
20260505192141 89 294 3.5 3.5 0.00 0.00 0.00 33 1086.6
20260505191639 89 248 5.2 7.0 0.00 0.00 0.00 33 1086.8
20260505191137 89 324 2.6 3.5 0.00 0.00 0.00 35 1086.8
20260505190632 89 276 8.7 11.3 0.00 0.00 0.00 35 1086.7
20260505190127 89 285 4.3 6.1 0.00 0.00 0.00 37 1087.0
20260505185624 88 310 3.5 5.2 0.00 0.00 0.00 39 1087.0
20260505185120 88 270 6.1 7.8 0.00 0.00 0.00 37 1086.8
20260505184617 88 296 5.2 7.0 0.00 0.00 0.00 39 1087.0
20260505184114 88 258 3.5 3.5 0.00 0.00 0.00 40 1087.4
20260505183611 87 319 4.3 5.2 0.00 0.00 0.00 39 1087.3
20260505183109 87 335 3.5 6.1 0.00 0.00 0.00 42 1087.4
20260505182604 87 313 5.2 6.1 0.00 0.00 0.00 40 1087.4
20260505182101 87 284 1.7 2.6 0.00 0.00 0.00 42 1087.5
20260505181558 87 243 5.2 5.2 0.00 0.00 0.00 41 1087.6
20260505181055 87 276 3.5 3.5 0.00 0.00 0.00 42 1087.5
20260505180550 86 262 5.2 6.1 0.00 0.00 0.00 43 1087.7
20260505180049 85 293 4.3 5.2 0.00 0.00 0.00 42 1087.6
20260505175549 86 273 4.3 5.2 0.00 0.00 0.00 45 1087.7
20260505175046 85 279 3.5 6.1 0.00 0.00 0.00 45 1087.5
20260505174543 85 236 4.3 5.2 0.00 0.00 0.00 46 1087.8
20260505174039 85 305 5.2 7.0 0.00 0.00 0.00 44 1087.6
20260505173536 84 271 6.1 7.0 0.00 0.00 0.00 47 1087.7
20260505173033 84 268 5.2 7.0 0.00 0.00 0.00 49 1087.9
20260505172531 84 206 1.7 1.7 0.00 0.00 0.00 52 1087.5
20260505172027 83 256 1.7 2.6 0.00 0.00 0.00 52 1087.8
20260505171522 82 272 2.6 2.6 0.00 0.00 0.00 56 1087.8
20260505171019 82 239 6.1 7.0 0.00 0.00 0.00 56 1087.6
20260505170516 82 252 5.2 6.1 0.00 0.00 0.00 59 1087.9
20260505170013 82 250 1.7 1.7 0.00 0.00 0.00 63 1087.9
20260505165508 81 205 1.7 2.6 0.00 0.00 0.00 65 1088.0
20260505165004 80 258 4.3 5.2 0.00 0.00 0.00 66 1087.8
20260505164500 79 178 4.3 6.1 0.00 0.00 0.00 67 1088.1
20260505163958 79 218 0.9 1.7 0.00 0.00 0.00 70 1088.0
20260505163456 78 232 0.9 0.9 0.00 0.00 0.00 71 1088.0
20260505162955 78 248 2.6 2.6 0.00 0.00 0.00 72 1088.0
20260505162451 78 258 3.5 3.5 0.00 0.00 0.00 73 1087.9
20260505161947 77 269 5.2 6.1 0.00 0.00 0.00 74 1087.9
20260505161444 77 201 2.6 5.2 0.00 0.00 0.00 75 1088.0
20260505160942 77 213 2.6 2.6 0.00 0.00 0.00 76 1088.0
20260505160440 77 214 2.6 3.5 0.00 0.00 0.00 77 1088.2
20260505152916 75 213 2.6 5.2 0.00 0.00 0.00 81 1087.7
20260505152414 75 211 0.9 0.9 0.00 0.00 0.00 82 1087.9
20260505151913 74 229 2.6 3.5 0.00 0.00 0.00 82 1087.8
20260505151410 73 201 3.5 5.2 0.00 0.00 0.00 83 1087.7
20260505150908 73 228 0.9 0.9 0.00 0.00 0.00 84 1087.5
20260505150405 73 181 3.5 5.2 0.00 0.00 0.00 84 1087.6
20260505140334 69 177 5.2 7.8 0.00 0.00 0.00 89 1087.6
20260505130257 67 186 7.0 9.6 0.00 0.00 0.00 93 1087.1